Location: Malvern Link
(52.1333°N, 2.3000°W)
Time: 16:06:20
(UTC+00:00)

Cosmos 1125 Rocket - Pass Details

Date: 18 September 2020
Orbit: 757 x 780 km, 74.0° (Epoch: 22 October)

Event Time Altitude Azimuth Distance (km) Brightness Sun altitude
Rises 20:38:51 0° 199° (SSW) 3,247 6.6 -21.5°
Reaches altitude 10° 20:41:13 10° 198° (SSW) 2,326 5.8 -21.8°
Maximum altitude 20:46:30 78° 113° (ESE) 802 3.4 -22.4°
Drops below altitude 10° 20:51:50 10° 27° (NNE) 2,345 6.1 -23.1°
Sets 20:54:14 0° 27° (NNE) 3,277 6.9 -23.4°
